Starlink 31699

operational
NORAD ID: 59551 Int'l Des: 2024-074 Owner: SPXS Country: US Constellation: starlink
LEOCIRCULAR

Starlink 31699について

説明を読み込み中...

リアルタイム位置

3D地球を読み込み中...

次回通過

高度履歴

Altitude vs Time

uPlot chart will show altitude changes over time

軌道要素

1 59551U 24074T 25304.53752633 .00004083 00000-0 15777-3 0 9995
2 59551 43.0013 352.7825 0001061 294.1087 65.9653 15.27586510 86265
Epoch: Oct 31, 2025 • Age: 29 hours

現在のステータス

高度 482.6 km
速度 7.63 km/s
衛星直下点 7.15°N, 151.28°W
打ち上げ日 Apr 18, 2024
運用期間 1.5 years
タイプ internet

技術仕様

分類 Payload
質量 730.00 kg
乾燥質量 700.00 kg
総質量 730.00 kg
長さ 0.30 m
直径 4.10 m
スパン 29.00 m
形状 Box + pan
製造者 SPXS
バスタイプ Starlink V2M
フェーズステータス In Orbit
所有者/国 SPXS/US

大規模コンステレーション

Loading constellations...